STARLINK-11610, 63135

Orbit data source: Space-Track

STARLINK-11610, 63135 is a payload satellite owned by SpaceX/Seattle (US) in LEO that was launched on Mon, 03 Mar 2025 UTC via an FALCON 9 launch vehicle from the Air Force Eastern Test Range (AFETR). Payload-class satellites include a variety of spacecraft equipped with specific instruments for various scientific and technological missions. These include communications satellites like Starlink; space stations such as the ISS; scientific satellites like the Hubble; Earth observation satellites from companies like Planet Labs, Umbra, and HawkEye 360; GPS; miniature CubeSats for education and research; and military/defense satellites.

Loading next visibility...
Identifier
63135, 2025-043D
Orbit
LEO
Country
Flag of USUS
Related business
Manufacturer
SpaceX/Seattle
Mission
Operational Commercial Communications
Bus & Motor
STARLINK V2MD, Unknown motor
Mass
960 kg wet, ~910 kg dry
Launch date (UTC)
2025-03-03 (11 months ago)
Launch vehicle
FALCON 9
Launch site
Air Force Eastern Test Range (AFETR)
Object type
Payload
Rocket body
Debris
Shape & HBR
Box + 2 Pan, 18.1 m
Radar Cross Section
36.964 m², Large (>1 m²)

Expand to show TLE details & history
Last TLE update: 5 hours ago

TLE from 5 hours ago
0 STARLINK-11610
1 63135U 25043D   26037.18043958  .00393994  00000-0  29413-2 0  9996
2 63135  42.9999  80.9039 0001542 263.2470  96.8222 15.70754199 54395
Epoch: 2026-02-06T04:19Z
TLE epoch observation values (Epoch: 2026-02-06T04:19:49.979Z)
Latitude
-0.00004°
Longitude
-120.3764°
Altitude
356.635 km
Speed
7.697 km/s
True Right ascension
05h 23m 36s
True Declination
0° 00' 00"
Sunlit
Object was in full shadow at epoch
Visualization orbit readout
Latitude
Unknown
Longitude
Unknown
Altitude
Unknown
Speed
Unknown
Apparent Right ascension
Unknown
Apparent Declination
Unknown
Sunlit
N/A
Visualization observer readout
Local Sidereal Time
11:37:20
Azimuth
Unknown
Elevation
Unknown
Doppler factor
Unknown
Orbital elements
Apogee altitude
359.761 km
Perigee altitude
357.683 km
Semi-major axis
6,736.859 km
Eccentricity
0.00015
Inclination
42.9999°
RAAN
80.9039°
Arg. of periapsis
263.247°
True anomaly
96.83974°
Mean anomaly
96.8222°
Eccentric anomaly
96.83097°
Mean motion
3.92516 °/min
Orbital period
91.72 mins
BSTAR
0.0029413
Loading maneuver chart data...
Computing Atmospheric mass density...
Loading historical data...
Loading historical data...
Loading historical data...
Loading historical data...
Loading historical data...
Loading historical data...
Loading historical data...

Documentation

Showing up to 5 results
|